| time (UTC) | temp F | wind direction | speed knots | gust knots | rain 1hr in | rain 24hr in | rain mn in | humidity % | barometer mb |
| 20260506012517 | 60 | 326 | 0.9 | 3.5 | 0.00 | 0.11 | 0.01 | 92 | 1012.2 |
| 20260506012008 | 59 | 334 | 0.9 | 5.2 | 0.00 | 0.11 | 0.01 | 92 | 1012.3 |
| 20260506011501 | 59 | 3 | 0.9 | 5.2 | 0.00 | 0.11 | 0.01 | 91 | 1012.4 |
| 20260506010956 | 59 | 324 | 1.7 | 6.1 | 0.00 | 0.11 | 0.01 | 90 | 1012.6 |
| 20260506010446 | 59 | 312 | 1.7 | 6.1 | 0.00 | 0.11 | 0.01 | 90 | 1012.6 |
| 20260506005940 | 59 | 271 | 1.7 | 6.1 | 0.00 | 0.11 | 0.01 | 91 | 1012.7 |
| 20260506005433 | 59 | 317 | 1.7 | 6.1 | 0.00 | 0.11 | 0.01 | 92 | 1012.8 |
| 20260506004923 | 59 | 278 | 0.9 | 7.8 | 0.00 | 0.11 | 0.01 | 91 | 1012.9 |
| 20260506004417 | 59 | 187 | 0.9 | 7.8 | 0.00 | 0.12 | 0.01 | 91 | 1012.9 |
| 20260506003912 | 59 | 169 | 1.7 | 7.8 | 0.00 | 0.12 | 0.01 | 90 | 1013.1 |
| 20260506002855 | 59 | 358 | 0.9 | 7.8 | 0.00 | 0.12 | 0.01 | 90 | 1013.2 |
| 20260506002350 | 58 | 321 | 0.9 | 4.3 | 0.01 | 0.12 | 0.01 | 90 | 1013.0 |
| 20260506001845 | 58 | 253 | 1.7 | 4.3 | 0.01 | 0.12 | 0.01 | 90 | 1013.1 |
| 20260506001333 | 58 | 177 | 1.7 | 4.3 | 0.01 | 0.12 | 0.01 | 91 | 1013.1 |
| 20260506000317 | 57 | 337 | 0.9 | 7.8 | 0.01 | 0.12 | 0.01 | 93 | 1013.4 |
| 20260505235811 | 57 | 296 | 0.9 | 7.8 | 0.01 | 0.12 | 0.01 | 93 | 1013.4 |
| 20260505234752 | 57 | 338 | 0.0 | 3.5 | 0.01 | 0.12 | 0.01 | 93 | 1013.6 |
| 20260505233739 | 57 | 22 | 0.9 | 3.5 | 0.01 | 0.12 | 0.01 | 92 | 1013.8 |
| 20260505233230 | 58 | 76 | 0.9 | 3.5 | 0.01 | 0.12 | 0.01 | 92 | 1013.9 |
| 20260505232724 | 58 | 338 | 0.9 | 3.5 | 0.01 | 0.12 | 0.01 | 92 | 1014.0 |
| 20260505232217 | 58 | 54 | 0.9 | 2.6 | 0.00 | 0.11 | 0.00 | 92 | 1014.2 |
| 20260505231708 | 58 | 321 | 0.0 | 2.6 | 0.00 | 0.11 | 0.00 | 92 | 1014.0 |
| 20260505231202 | 57 | 334 | 0.0 | 2.6 | 0.00 | 0.11 | 0.00 | 92 | 1014.1 |
| 20260505230655 | 57 | 330 | 0.0 | 3.5 | 0.00 | 0.12 | 0.00 | 92 | 1014.1 |
| 20260505230145 | 57 | 126 | 0.0 | 3.5 | 0.00 | 0.12 | 0.00 | 92 | 1014.2 |
| 20260505225639 | 57 | 352 | 0.0 | 3.5 | 0.00 | 0.12 | 0.00 | 92 | 1014.2 |
| 20260505225133 | 57 | 329 | 0.0 | 3.5 | 0.00 | 0.12 | 0.00 | 92 | 1014.3 |
| 20260505224623 | 56 | 331 | 0.0 | 3.5 | 0.00 | 0.12 | 0.00 | 93 | 1014.4 |
| 20260505224117 | 56 | 148 | 0.0 | 3.5 | 0.00 | 0.12 | 0.00 | 93 | 1014.4 |
| 20260505223612 | 56 | 338 | 0.0 | 3.5 | 0.00 | 0.12 | 0.00 | 93 | 1014.5 |
| 20260505223102 | 56 | 346 | 0.0 | 4.3 | 0.00 | 0.12 | 0.00 | 93 | 1014.4 |
| 20260505222556 | 56 | 318 | 0.0 | 4.3 | 0.00 | 0.12 | 0.00 | 93 | 1014.5 |
| 20260505222049 | 56 | 308 | 0.0 | 2.6 | 0.00 | 0.12 | 0.00 | 93 | 1014.6 |
| 20260505221540 | 56 | 353 | 0.0 | 2.6 | 0.00 | 0.12 | 0.00 | 93 | 1014.5 |
| 20260505221033 | 56 | 101 | 0.0 | 3.5 | 0.00 | 0.12 | 0.00 | 93 | 1014.5 |
| 20260505220527 | 56 | 0 | 0.9 | 3.5 | 0.00 | 0.12 | 0.00 | 93 | 1014.5 |
| 20260505220018 | 56 | 180 | 0.0 | 3.5 | 0.00 | 0.12 | 0.00 | 93 | 1014.6 |
| 20260505215512 | 56 | 310 | 0.0 | 3.5 | 0.00 | 0.12 | 0.00 | 93 | 1014.7 |
| 20260505215005 | 56 | 3 | 0.0 | 2.6 | 0.00 | 0.12 | 0.00 | 92 | 1014.7 |
| 20260505214455 | 57 | 303 | 0.9 | 2.6 | 0.00 | 0.12 | 0.00 | 92 | 1014.7 |
| 20260505213444 | 56 | 331 | 0.9 | 4.3 | 0.00 | 0.13 | 0.00 | 92 | 1014.7 |
| 20260505212934 | 56 | 120 | 0.9 | 4.3 | 0.00 | 0.13 | 0.00 | 92 | 1014.6 |
| 20260505212427 | 56 | 331 | 0.9 | 4.3 | 0.00 | 0.13 | 0.00 | 92 | 1014.7 |
| 20260505211411 | 56 | 135 | 0.9 | 3.5 | 0.00 | 0.13 | 0.00 | 91 | 1014.7 |
| 20260505210359 | 56 | 336 | 0.9 | 3.5 | 0.00 | 0.13 | 0.00 | 92 | 1014.7 |
| 20260505205849 | 56 | 230 | 0.0 | 4.3 | 0.00 | 0.13 | 0.00 | 92 | 1014.7 |
| 20260505205344 | 56 | 213 | 0.0 | 4.3 | 0.00 | 0.13 | 0.00 | 92 | 1014.6 |
| 20260505204838 | 56 | 190 | 0.0 | 4.3 | 0.00 | 0.13 | 0.00 | 92 | 1014.7 |
| 20260505204328 | 56 | 190 | 0.0 | 4.3 | 0.00 | 0.13 | 0.00 | 92 | 1014.7 |
| 20260505203821 | 56 | 296 | 0.9 | 4.3 | 0.00 | 0.13 | 0.00 | 92 | 1014.7 |
| 20260505203316 | 56 | 175 | 0.9 | 4.3 | 0.00 | 0.13 | 0.00 | 92 | 1014.8 |
| 20260505202259 | 55 | 180 | 0.9 | 4.3 | 0.00 | 0.13 | 0.00 | 92 | 1014.8 |
| 20260505201244 | 56 | 133 | 0.9 | 4.3 | 0.00 | 0.13 | 0.00 | 93 | 1014.9 |
| 20260505200738 | 55 | 217 | 0.9 | 3.5 | 0.00 | 0.13 | 0.00 | 93 | 1015.0 |
| 20260505195722 | 55 | 180 | 0.0 | 2.6 | 0.00 | 0.13 | 0.00 | 93 | 1014.9 |
| 20260505193653 | 55 | 182 | 0.0 | 2.6 | 0.00 | 0.13 | 0.00 | 93 | 1015.2 |
| 20260505193147 | 55 | 234 | 0.0 | 2.6 | 0.00 | 0.13 | 0.00 | 93 | 1015.2 |
| 20260505192131 | 55 | 92 | 0.9 | 5.2 | 0.00 | 0.13 | 0.00 | 93 | 1015.2 |
| 20260505191626 | 56 | 144 | 0.9 | 5.2 | 0.00 | 0.13 | 0.00 | 93 | 1015.3 |
| 20260505191115 | 55 | 163 | 0.9 | 5.2 | 0.00 | 0.13 | 0.00 | 94 | 1015.3 |
| 20260505185553 | 55 | 67 | 0.9 | 2.6 | 0.00 | 0.14 | 0.00 | 94 | 1015.4 |
| 20260505185047 | 55 | 150 | 0.0 | 1.7 | 0.00 | 0.14 | 0.00 | 94 | 1015.4 |
| 20260505184541 | 55 | 188 | 0.0 | 1.7 | 0.00 | 0.14 | 0.00 | 94 | 1015.4 |
| 20260505184032 | 55 | 131 | 0.0 | 2.6 | 0.00 | 0.14 | 0.00 | 93 | 1015.4 |
| 20260505183526 | 55 | 131 | 0.0 | 2.6 | 0.00 | 0.14 | 0.00 | 93 | 1015.5 |
| 20260505183019 | 55 | 131 | 0.0 | 2.6 | 0.00 | 0.14 | 0.00 | 94 | 1015.5 |
| 20260505182509 | 55 | 80 | 0.9 | 1.7 | 0.00 | 0.14 | 0.00 | 94 | 1015.5 |
| 20260505182004 | 55 | 209 | 0.9 | 1.7 | 0.00 | 0.14 | 0.00 | 94 | 1015.6 |
| 20260505181458 | 54 | 170 | 0.0 | 1.7 | 0.00 | 0.14 | 0.00 | 94 | 1015.4 |
| 20260505180949 | 54 | 132 | 0.0 | 1.7 | 0.00 | 0.14 | 0.00 | 94 | 1015.4 |
| 20260505180442 | 54 | 129 | 0.0 | 1.7 | 0.00 | 0.14 | 0.00 | 93 | 1015.4 |
| 20260505175935 | 54 | 156 | 0.0 | 1.7 | 0.00 | 0.14 | 0.00 | 93 | 1015.5 |
| 20260505175425 | 55 | 76 | 0.0 | 1.7 | 0.00 | 0.14 | 0.00 | 93 | 1015.5 |
| 20260505174919 | 55 | 147 | 0.0 | 1.7 | 0.00 | 0.15 | 0.00 | 93 | 1015.5 |
| 20260505174414 | 55 | 161 | 0.0 | 0.9 | 0.00 | 0.15 | 0.00 | 93 | 1015.4 |
| 20260505173903 | 55 | 173 | 0.0 | 3.5 | 0.00 | 0.15 | 0.00 | 93 | 1015.6 |
| 20260505173357 | 55 | 181 | 0.0 | 3.5 | 0.00 | 0.15 | 0.00 | 93 | 1015.6 |
| 20260505172852 | 55 | 201 | 0.9 | 3.5 | 0.00 | 0.15 | 0.00 | 93 | 1015.6 |
| 20260505172342 | 55 | 265 | 0.0 | 3.5 | 0.00 | 0.15 | 0.00 | 93 | 1015.7 |
| 20260505171835 | 55 | 106 | 0.0 | 3.5 | 0.00 | 0.15 | 0.00 | 93 | 1015.8 |
| 20260505171329 | 55 | 187 | 0.0 | 1.7 | 0.00 | 0.15 | 0.00 | 93 | 1015.8 |
| 20260505170819 | 55 | 287 | 0.0 | 0.9 | 0.00 | 0.15 | 0.00 | 93 | 1015.9 |
| 20260505165808 | 55 | 125 | 0.0 | 2.6 | 0.00 | 0.16 | 0.00 | 92 | 1016.0 |
| 20260505165257 | 56 | 140 | 0.0 | 4.3 | 0.00 | 0.16 | 0.00 | 92 | 1016.0 |
| 20260505164751 | 56 | 173 | 0.9 | 4.3 | 0.00 | 0.16 | 0.00 | 92 | 1016.0 |
| 20260505164245 | 56 | 16 | 0.0 | 7.0 | 0.00 | 0.16 | 0.00 | 92 | 1016.2 |
| 20260505163735 | 56 | 187 | 0.0 | 7.0 | 0.00 | 0.16 | 0.00 | 92 | 1016.3 |
| 20260505162723 | 56 | 116 | 0.9 | 7.0 | 0.00 | 0.16 | 0.00 | 92 | 1016.3 |
| 20260505162213 | 56 | 128 | 0.9 | 6.1 | 0.00 | 0.16 | 0.00 | 92 | 1016.4 |
| 20260505161708 | 56 | 218 | 0.9 | 6.1 | 0.00 | 0.17 | 0.00 | 93 | 1016.4 |
| 20260505160651 | 56 | 177 | 0.0 | 4.3 | 0.00 | 0.17 | 0.00 | 93 | 1016.5 |
| 20260505153101 | 54 | 104 | 0.9 | 3.5 | 0.00 | 0.17 | 0.00 | 94 | 1016.8 |
| 20260505152555 | 54 | 87 | 0.0 | 2.6 | 0.00 | 0.17 | 0.00 | 94 | 1016.9 |
| 20260505152046 | 54 | 182 | 0.0 | 0.9 | 0.00 | 0.17 | 0.00 | 94 | 1016.9 |
| 20260505151539 | 54 | 182 | 0.0 | 1.7 | 0.00 | 0.17 | 0.00 | 94 | 1016.9 |
| 20260505150533 | 54 | 75 | 0.0 | 1.7 | 0.00 | 0.18 | 0.00 | 94 | 1017.0 |
| 20260505140518 | 51 | 180 | 0.0 | 0.0 | 0.00 | 0.19 | 0.00 | 94 | 1017.2 |
| 20260505123942 | 52 | 180 | 0.0 | 0.0 | 0.00 | 0.21 | 0.19 | 92 | 1017.9 |
| 20260505123440 | 52 | 180 | 0.0 | 0.0 | 0.00 | 0.21 | 0.19 | 92 | 1017.9 |
| 20260505122939 | 52 | 180 | 0.0 | 0.0 | 0.00 | 0.21 | 0.19 | 92 | 1017.9 |
| 20260505122437 | 52 | 180 | 0.0 | 0.0 | 0.00 | 0.22 | 0.19 | 92 | 1017.9 |
| 20260505121935 | 52 | 180 | 0.0 | 0.0 | 0.00 | 0.22 | 0.19 | 92 | 1018.0 |
| 20260505121429 | 52 | 180 | 0.0 | 0.0 | 0.00 | 0.22 | 0.19 | 91 | 1018.0 |
| 20260505120923 | 52 | 180 | 0.0 | 0.0 | 0.00 | 0.22 | 0.19 | 91 | 1018.0 |
| 20260505120416 | 52 | 180 | 0.0 | 0.0 | 0.00 | 0.22 | 0.19 | 91 | 1018.0 |
| 20260505115917 | 52 | 180 | 0.0 | 0.0 | 0.00 | 0.22 | 0.19 | 91 | 1018.0 |
| 20260505115416 | 53 | 180 | 0.0 | 0.0 | 0.00 | 0.23 | 0.19 | 91 | 1018.2 |
| 20260505114917 | 53 | 180 | 0.0 | 0.0 | 0.00 | 0.23 | 0.19 | 91 | 1018.1 |
| 20260505114414 | 53 | 180 | 0.0 | 0.0 | 0.00 | 0.23 | 0.19 | 91 | 1018.2 |
| 20260505113914 | 53 | 180 | 0.0 | 0.0 | 0.00 | 0.23 | 0.19 | 91 | 1018.2 |
| 20260505113414 | 53 | 143 | 0.0 | 0.0 | 0.00 | 0.23 | 0.19 | 91 | 1018.2 |
| 20260505112914 | 53 | 143 | 0.0 | 0.0 | 0.00 | 0.24 | 0.19 | 91 | 1018.1 |
| 20260505112412 | 53 | 143 | 0.0 | 0.0 | 0.00 | 0.24 | 0.19 | 91 | 1018.1 |
| 20260505111910 | 53 | 143 | 0.0 | 0.0 | 0.00 | 0.24 | 0.19 | 91 | 1018.0 |
| 20260505110906 | 53 | 143 | 0.0 | 0.0 | 0.00 | 0.24 | 0.19 | 91 | 1018.0 |
| 20260505101839 | 51 | 207 | 0.0 | 0.0 | 0.00 | 0.25 | 0.19 | 92 | 1018.1 |
| 20260505100338 | 51 | 329 | 0.0 | 0.0 | 0.00 | 0.25 | 0.19 | 92 | 1018.0 |
| 20260505095835 | 51 | 329 | 0.0 | 0.0 | 0.00 | 0.26 | 0.19 | 91 | 1017.9 |
| 20260505095336 | 51 | 329 | 0.0 | 0.0 | 0.00 | 0.26 | 0.19 | 91 | 1017.9 |
| 20260505094832 | 51 | 329 | 0.0 | 0.0 | 0.00 | 0.26 | 0.19 | 90 | 1018.0 |
| 20260505093826 | 51 | 329 | 0.0 | 0.0 | 0.00 | 0.26 | 0.19 | 90 | 1018.0 |
| 20260505093324 | 51 | 329 | 0.0 | 0.0 | 0.00 | 0.27 | 0.19 | 90 | 1017.8 |
| 20260505092825 | 51 | 329 | 0.0 | 0.0 | 0.00 | 0.27 | 0.19 | 90 | 1017.9 |
| 20260505092320 | 51 | 329 | 0.0 | 0.0 | 0.00 | 0.27 | 0.19 | 90 | 1017.9 |
| 20260505091821 | 51 | 27 | 0.0 | 0.0 | 0.00 | 0.27 | 0.19 | 91 | 1017.8 |
| 20260505091322 | 51 | 50 | 0.0 | 0.0 | 0.00 | 0.28 | 0.19 | 90 | 1017.8 |
| 20260505090310 | 51 | 50 | 0.0 | 0.0 | 0.00 | 0.28 | 0.19 | 89 | 1017.7 |
| 20260505085759 | 52 | 50 | 0.0 | 0.0 | 0.00 | 0.28 | 0.19 | 88 | 1017.7 |
| 20260505084748 | 52 | 50 | 0.0 | 0.0 | 0.00 | 0.28 | 0.19 | 88 | 1017.4 |
| 20260505084237 | 52 | 50 | 0.0 | 0.0 | 0.00 | 0.28 | 0.19 | 87 | 1017.4 |
| 20260505083731 | 53 | 50 | 0.0 | 0.0 | 0.00 | 0.29 | 0.19 | 86 | 1017.4 |
| 20260505083225 | 53 | 50 | 0.0 | 0.0 | 0.00 | 0.29 | 0.19 | 86 | 1017.3 |
| 20260505082715 | 53 | 50 | 0.0 | 0.0 | 0.00 | 0.30 | 0.19 | 85 | 1017.2 |
| 20260505082211 | 54 | 50 | 0.0 | 0.0 | 0.00 | 0.30 | 0.19 | 84 | 1017.1 |
| 20260505081704 | 54 | 50 | 0.0 | 0.0 | 0.00 | 0.30 | 0.19 | 84 | 1016.9 |
| 20260505081153 | 54 | 50 | 0.0 | 1.7 | 0.00 | 0.31 | 0.19 | 83 | 1016.9 |
| 20260505080648 | 54 | 50 | 0.0 | 1.7 | 0.00 | 0.31 | 0.19 | 83 | 1016.8 |
| 20260505080141 | 54 | 50 | 0.0 | 1.7 | 0.00 | 0.31 | 0.19 | 83 | 1016.7 |
| 20260505075125 | 55 | 104 | 0.0 | 0.9 | 0.08 | 0.32 | 0.19 | 81 | 1016.5 |
| 20260505074621 | 55 | 104 | 0.0 | 0.9 | 0.08 | 0.32 | 0.19 | 81 | 1016.4 |
| 20260505074109 | 55 | 104 | 0.0 | 1.7 | 0.08 | 0.33 | 0.19 | 80 | 1016.4 |
| 20260505072547 | 56 | 104 | 0.9 | 3.5 | 0.08 | 0.35 | 0.19 | 78 | 1016.3 |
| 20260505072042 | 56 | 180 | 0.9 | 3.5 | 0.08 | 0.35 | 0.19 | 78 | 1016.1 |
| 20260505071535 | 56 | 0 | 0.9 | 3.5 | 0.08 | 0.36 | 0.19 | 77 | 1016.1 |
| 20260505071025 | 56 | 224 | 0.9 | 2.6 | 0.08 | 0.36 | 0.19 | 78 | 1016.1 |
| 20260505070012 | 57 | 192 | 0.0 | 1.7 | 0.08 | 0.38 | 0.19 | 79 | 1016.0 |
| 20260505065502 | 57 | 33 | 0.0 | 2.6 | 0.00 | 0.30 | 0.11 | 79 | 1015.8 |
| 20260505064955 | 58 | 15 | 0.0 | 2.6 | 0.00 | 0.30 | 0.11 | 78 | 1015.8 |
| 20260505063940 | 58 | 72 | 0.0 | 2.6 | 0.00 | 0.30 | 0.11 | 77 | 1015.5 |
| 20260505063433 | 59 | 234 | 0.9 | 2.6 | 0.00 | 0.30 | 0.11 | 75 | 1015.4 |
| 20260505062938 | 59 | 204 | 0.9 | 7.0 | 0.00 | 0.30 | 0.11 | 73 | 1015.4 |
| 20260505062428 | 59 | 92 | 0.9 | 7.0 | 0.00 | 0.30 | 0.11 | 72 | 1015.2 |
| 20260505061930 | 59 | 161 | 1.7 | 7.0 | 0.01 | 0.30 | 0.11 | 72 | 1015.1 |
| 20260505061428 | 59 | 185 | 1.7 | 7.0 | 0.01 | 0.30 | 0.11 | 71 | 1015.1 |
| 20260505060928 | 59 | 296 | 1.7 | 5.2 | 0.01 | 0.30 | 0.11 | 70 | 1015.1 |
| 20260505060428 | 60 | 193 | 1.7 | 5.2 | 0.01 | 0.30 | 0.11 | 70 | 1015.0 |
| 20260505055928 | 60 | 5 | 1.7 | 5.2 | 0.01 | 0.30 | 0.11 | 70 | 1014.9 |
| 20260505055426 | 60 | 214 | 1.7 | 5.2 | 0.01 | 0.30 | 0.11 | 71 | 1014.8 |
| 20260505054932 | 60 | 227 | 1.7 | 5.2 | 0.01 | 0.30 | 0.11 | 71 | 1014.7 |
| 20260505054428 | 60 | 214 | 1.7 | 7.0 | 0.01 | 0.30 | 0.11 | 72 | 1014.8 |
| 20260505053926 | 60 | 258 | 0.9 | 7.0 | 0.01 | 0.30 | 0.11 | 71 | 1014.6 |
| 20260505053427 | 61 | 206 | 1.7 | 7.0 | 0.01 | 0.30 | 0.11 | 70 | 1014.6 |
| 20260505052427 | 61 | 208 | 1.7 | 8.7 | 0.01 | 0.30 | 0.11 | 70 | 1014.6 |
| 20260505051922 | 62 | 242 | 1.7 | 8.7 | 0.00 | 0.29 | 0.10 | 69 | 1014.5 |
| 20260505051423 | 62 | 18 | 1.7 | 8.7 | 0.00 | 0.29 | 0.10 | 69 | 1014.4 |
| 20260505050924 | 62 | 285 | 1.7 | 7.0 | 0.01 | 0.29 | 0.10 | 68 | 1014.4 |
| 20260505050424 | 63 | 156 | 2.6 | 7.0 | 0.01 | 0.29 | 0.10 | 69 | 1014.3 |
| 20260505041420 | 63 | 119 | 0.9 | 6.1 | 0.01 | 0.29 | 0.10 | 73 | 1013.3 |
| 20260505040920 | 63 | 122 | 1.7 | 6.1 | 0.00 | 0.28 | 0.09 | 71 | 1013.3 |
| 20260505040414 | 63 | 144 | 1.7 | 7.8 | 0.00 | 0.28 | 0.09 | 70 | 1013.2 |
| 20260505035911 | 63 | 177 | 2.6 | 7.8 | 0.00 | 0.28 | 0.09 | 70 | 1013.1 |
| 20260505035411 | 63 | 135 | 2.6 | 7.8 | 0.00 | 0.28 | 0.09 | 69 | 1013.2 |
| 20260505034912 | 63 | 187 | 1.7 | 7.8 | 0.00 | 0.28 | 0.09 | 70 | 1013.1 |
| 20260505034412 | 63 | 1 | 1.7 | 5.2 | 0.00 | 0.28 | 0.09 | 71 | 1013.1 |
| 20260505033912 | 63 | 275 | 1.7 | 4.3 | 0.00 | 0.28 | 0.09 | 72 | 1013.0 |
| 20260505032912 | 63 | 187 | 0.9 | 3.5 | 0.01 | 0.28 | 0.09 | 74 | 1013.1 |
| 20260505032410 | 63 | 320 | 0.9 | 4.3 | 0.01 | 0.28 | 0.09 | 75 | 1013.1 |
| 20260505031910 | 63 | 130 | 0.9 | 4.3 | 0.01 | 0.28 | 0.09 | 73 | 1013.2 |
| 20260505031412 | 63 | 35 | 1.7 | 4.3 | 0.01 | 0.28 | 0.09 | 74 | 1013.1 |
| 20260505030411 | 63 | 163 | 0.9 | 7.0 | 0.01 | 0.29 | 0.09 | 72 | 1013.1 |
| 20260505025910 | 63 | 72 | 1.7 | 7.0 | 0.01 | 0.29 | 0.09 | 73 | 1013.2 |
| 20260505025412 | 63 | 181 | 1.7 | 7.0 | 0.01 | 0.29 | 0.09 | 72 | 1013.2 |
| 20260505024359 | 63 | 194 | 0.9 | 5.2 | 0.01 | 0.29 | 0.09 | 74 | 1013.1 |
| 20260505023853 | 63 | 37 | 1.7 | 4.3 | 0.01 | 0.29 | 0.09 | 73 | 1013.2 |
| 20260505022852 | 63 | 163 | 1.7 | 7.0 | 0.00 | 0.28 | 0.09 | 74 | 1013.3 |
| 20260505022353 | 62 | 28 | 1.7 | 7.0 | 0.00 | 0.28 | 0.09 | 76 | 1013.2 |
| 20260505021853 | 62 | 179 | 1.7 | 7.0 | 0.00 | 0.28 | 0.09 | 75 | 1013.2 |
| 20260505021357 | 62 | 127 | 1.7 | 4.3 | 0.00 | 0.28 | 0.09 | 78 | 1013.2 |
| 20260505020854 | 62 | 77 | 1.7 | 4.3 | 0.00 | 0.28 | 0.09 | 78 | 1013.2 |
| 20260505020353 | 61 | 148 | 0.9 | 4.3 | 0.00 | 0.28 | 0.09 | 79 | 1013.2 |
| 20260505015854 | 61 | 33 | 0.9 | 4.3 | 0.00 | 0.28 | 0.09 | 80 | 1013.2 |
| 20260505014852 | 61 | 8 | 0.9 | 3.5 | 0.01 | 0.28 | 0.09 | 83 | 1013.2 |
| 20260505014348 | 60 | 46 | 0.0 | 2.6 | 0.01 | 0.28 | 0.09 | 82 | 1013.2 |
| 20260505013848 | 60 | 62 | 0.0 | 1.7 | 0.01 | 0.28 | 0.09 | 84 | 1013.2 |
| 20260505013346 | 59 | 183 | 0.0 | 4.3 | 0.01 | 0.28 | 0.09 | 85 | 1013.3 |
| 20260505012842 | 59 | 76 | 0.9 | 4.3 | 0.01 | 0.28 | 0.09 | 86 | 1013.3 |